Weather History for KLUX - March, 2014

Change the Weather History Date:

Sunday, March 23, 2014

  Actual Average (KGSP) Record (KGSP)
Temperature  
Mean Temperature 52 °F 55 °F  
Max Temperature 62 °F 67 °F 91 °F (1907)
Min Temperature 39 °F 43 °F 22 °F (1915)
Degree Days  
Heating Degree Days 14 11  
Month to date heating degree days 308  
Since 1 July heating degree days 2757  
Cooling Degree Days 0 0  
Month to date cooling degree days 0  
Year to date cooling degree days 0  
Growing Degree Days 2 (Base 50)    
Moisture  
Dew Point 44 °F    
Average Humidity 67    
Maximum Humidity 100    
Minimum Humidity 48    
Precipitation  
Precipitation 0.00 in 0.14 in 2.08 in (1989)
Month to date precipitation 3.38  
Year to date precipitation 11.17  
Snow  
Snow 0.00 in 0.10 in 0.00 in ()
Month to date snowfall 0.8  
Since 1 July snowfall 4.6  
Snow Depth -    
Sea Level Pressure  
Sea Level Pressure 30.01 in    
Wind  
Wind Speed 6 mph (North)    
Max Wind Speed 14 mph    
Max Gust Speed 18 mph    
Visibility 10 miles    
Events Rain    
T = Trace of Precipitation, MM = Missing Value Source: NWS Daily Summary

Daily Weather History Graph

Daily Weather History Graph

Search for Another Location

Airport or City:

Trip Planner

Search our weather history database for the weather conditions in past years. The results will help you decide how hot, cold, wet, or windy it might be!

Date:

Astronomy

Mar. 23, 2014 Rise Set
Actual Time 7:27 AM EDT 7:41 PM EDT
Civil Twilight 7:02 AM EDT 8:06 PM EDT
Nautical Twilight 6:32 AM EDT 8:36 PM EDT
Astronomical Twilight 6:03 AM EDT 9:06 PM EDT
Moon 1:45 AM EDT (3/23) 12:19 PM EDT (3/23)
Length of Visible Light 13h 04m
Length of Day
12h 14m
Waning Gibbous, 55% of the Moon is Illuminated
Mar 23
Waning Gibbous
Mar 23
Last Quarter
Mar 30
New
Apr 7
First Quarter
Apr 15
Full

Hourly Weather History & Observations

Time (EDT) Temp. Windchill Dew Point Humidity Pressure Visibility Wind Dir Wind Speed Gust Speed Precip Events Conditions
12:15 AM 60.8 °F - 42.8 °F 52% 30.00 in 10.0 mi WSW 4.6 mph - N/A   Clear
12:35 AM 60.8 °F - 42.8 °F 52% 30.00 in 10.0 mi WSW 4.6 mph - N/A   Clear
12:55 AM 62.6 °F - 42.8 °F 48% 30.00 in 10.0 mi WSW 4.6 mph - N/A   Clear
1:15 AM 62.6 °F - 42.8 °F 48% 29.99 in 10.0 mi West 6.9 mph - N/A   Clear
1:35 AM 60.8 °F - 42.8 °F 52% 29.99 in 10.0 mi West 9.2 mph - N/A   Clear
1:55 AM 60.8 °F - 42.8 °F 52% 29.99 in 10.0 mi West 8.1 mph - N/A   Clear
2:15 AM 60.8 °F - 42.8 °F 52% 29.99 in 10.0 mi West 9.2 mph - N/A   Clear
2:35 AM 60.8 °F - 42.8 °F 52% 29.99 in 10.0 mi West 8.1 mph - N/A   Clear
2:55 AM 60.8 °F - 42.8 °F 52% 29.98 in 10.0 mi WNW 8.1 mph - N/A   Clear
3:15 AM 60.8 °F - 42.8 °F 52% 29.97 in 10.0 mi WNW 8.1 mph - N/A   Clear
3:35 AM 60.8 °F - 42.8 °F 52% 29.96 in 10.0 mi West 4.6 mph - N/A   Clear
3:55 AM 55.4 °F - 42.8 °F 63% 29.96 in 10.0 mi SW 4.6 mph - N/A   Clear
4:15 AM 53.6 °F - 42.8 °F 67% 29.95 in 10.0 mi SW 5.8 mph - N/A   Clear
4:35 AM 53.6 °F - 42.8 °F 67% 29.95 in 10.0 mi SW 4.6 mph - N/A   Clear
4:55 AM 51.8 °F - 42.8 °F 71% 29.94 in 10.0 mi SW 4.6 mph - N/A   Clear
5:15 AM 51.8 °F - 42.8 °F 71% 29.94 in 10.0 mi SW 4.6 mph - N/A   Clear
5:35 AM 51.8 °F - 42.8 °F 71% 29.93 in 10.0 mi SW 4.6 mph - N/A   Clear
5:55 AM 50.0 °F - 46.4 °F 87% 29.93 in 10.0 mi SSW 6.9 mph - N/A   Clear
6:15 AM 51.8 °F - 44.6 °F 76% 29.94 in 10.0 mi SSW 9.2 mph - N/A   Clear
6:35 AM 51.8 °F - 44.6 °F 76% 29.95 in 10.0 mi SSW 9.2 mph - N/A   Clear
6:55 AM 51.8 °F - 44.6 °F 76% 29.96 in 10.0 mi SSW 6.9 mph - N/A   Clear
7:15 AM 51.8 °F - 44.6 °F 76% 29.96 in 10.0 mi SSW 6.9 mph - N/A   Clear
7:35 AM 53.6 °F - 44.6 °F 72% 29.96 in 10.0 mi South 4.6 mph - N/A   Scattered Clouds
7:55 AM 53.6 °F - 44.6 °F 72% 29.96 in 10.0 mi SSW 3.5 mph - N/A   Scattered Clouds
8:15 AM 53.6 °F - 44.6 °F 72% 29.97 in 10.0 mi Calm Calm - N/A   Clear
8:35 AM 53.6 °F - 46.4 °F 77% 29.97 in 10.0 mi Calm Calm - N/A   Clear
8:55 AM 53.6 °F - 46.4 °F 77% 29.97 in 10.0 mi Calm Calm - N/A   Clear
9:15 AM 55.4 °F - 46.4 °F 72% 29.97 in 10.0 mi West 3.5 mph - N/A   Clear
9:35 AM 57.2 °F - 46.4 °F 67% 29.97 in 10.0 mi Calm Calm - N/A   Clear
9:55 AM 59.0 °F - 46.4 °F 63% 29.98 in 10.0 mi NW 4.6 mph - N/A   Clear
10:15 AM 59.0 °F - 46.4 °F 63% 29.99 in 10.0 mi NNW 8.1 mph - N/A   Scattered Clouds
10:35 AM 59.0 °F - 44.6 °F 59% 30.00 in 10.0 mi North 9.2 mph 16.1 mph N/A   Mostly Cloudy
10:55 AM 57.2 °F - 44.6 °F 63% 30.02 in 10.0 mi North 12.7 mph 18.4 mph N/A Rain Rain
11:15 AM 55.4 °F - 46.4 °F 72% 30.03 in 10.0 mi North 11.5 mph 18.4 mph N/A Rain Light Rain
11:35 AM 55.4 °F - 46.4 °F 72% 30.03 in 10.0 mi NNE 13.8 mph 18.4 mph N/A   Mostly Cloudy
11:55 AM 55.4 °F - 44.6 °F 67% 30.03 in 10.0 mi NNE 9.2 mph 18.4 mph N/A   Scattered Clouds
12:15 PM 55.4 °F - 42.8 °F 63% 30.02 in 10.0 mi NNE 6.9 mph 18.4 mph N/A   Scattered Clouds
12:35 PM 55.4 °F - 42.8 °F 63% 30.02 in 10.0 mi NE 9.2 mph - N/A   Scattered Clouds
12:55 PM 53.6 °F - 42.8 °F 67% 30.01 in 10.0 mi NE 6.9 mph - N/A   Mostly Cloudy
1:15 PM 53.6 °F - 42.8 °F 67% 30.01 in 10.0 mi ENE 8.1 mph - N/A Rain Rain
1:35 PM 53.6 °F - 42.8 °F 67% 30.00 in 10.0 mi NE 5.8 mph - N/A   Light Drizzle
1:55 PM 55.4 °F - 44.6 °F 67% 29.99 in 10.0 mi NNE 8.1 mph - N/A Rain Light Rain
2:15 PM 53.6 °F - 44.6 °F 72% 29.99 in 10.0 mi NE 6.9 mph - N/A   Mostly Cloudy
2:35 PM 53.6 °F - 44.6 °F 72% 29.99 in 10.0 mi NNE 6.9 mph - N/A   Overcast
2:55 PM 55.4 °F - 44.6 °F 67% 29.98 in 10.0 mi North 8.1 mph - N/A   Mostly Cloudy
3:15 PM 57.2 °F - 44.6 °F 63% 29.97 in 10.0 mi North 8.1 mph - N/A   Mostly Cloudy
3:35 PM 59.0 °F - 44.6 °F 59% 29.97 in 10.0 mi NNE 9.2 mph - N/A   Mostly Cloudy
3:55 PM 59.0 °F - 46.4 °F 63% 29.97 in 10.0 mi NNE 10.4 mph - N/A   Mostly Cloudy
4:15 PM 57.2 °F - 44.6 °F 63% 29.98 in 10.0 mi North 10.4 mph 18.4 mph N/A   Overcast
4:35 PM 55.4 °F - 46.4 °F 72% 29.98 in 10.0 mi NNE 10.4 mph 16.1 mph N/A   Overcast
4:55 PM 53.6 °F - 44.6 °F 72% 29.99 in 10.0 mi North 8.1 mph - N/A   Overcast
5:15 PM 51.8 °F - 44.6 °F 76% 30.00 in 10.0 mi North 9.2 mph - N/A   Overcast
5:35 PM 51.8 °F - 44.6 °F 76% 30.01 in 10.0 mi NNE 8.1 mph - N/A   Overcast
5:55 PM 51.8 °F - 42.8 °F 71% 30.02 in 10.0 mi NE 6.9 mph - N/A   Overcast
6:15 PM 51.8 °F - 42.8 °F 71% 30.02 in 10.0 mi NE 6.9 mph - N/A   Overcast
6:35 PM 51.8 °F - 42.8 °F 71% 30.03 in 10.0 mi ENE 8.1 mph - N/A   Overcast
6:55 PM 51.8 °F - 42.8 °F 71% 30.04 in 10.0 mi NE 6.9 mph - N/A   Overcast
7:15 PM 51.8 °F - 42.8 °F 71% 30.04 in 10.0 mi ENE 3.5 mph - N/A   Overcast
7:35 PM 51.8 °F - 42.8 °F 71% 30.05 in 10.0 mi NE 5.8 mph - N/A   Overcast
7:55 PM 51.8 °F - 42.8 °F 71% 30.05 in 10.0 mi NE 5.8 mph - N/A   Overcast
8:15 PM 50.0 °F - 42.8 °F 76% 30.06 in 10.0 mi NE 3.5 mph - N/A   Scattered Clouds
8:35 PM 48.2 °F - 44.6 °F 87% 30.06 in 10.0 mi ENE 3.5 mph - N/A   Clear
8:55 PM 46.4 °F - 46.4 °F 100% 30.08 in 10.0 mi Calm Calm - N/A   Clear
9:15 PM 46.4 °F 45.2 °F - N/A% 30.09 in 10.0 mi NE 3.5 mph - N/A   Clear
9:35 PM 44.6 °F 42.2 °F - N/A% 30.09 in 10.0 mi NE 4.6 mph - N/A   Clear
9:55 PM 44.6 °F 43.1 °F - N/A% 30.11 in 10.0 mi ENE 3.5 mph - N/A   Clear
10:15 PM 44.6 °F - - N/A% 30.12 in 10.0 mi Calm Calm - N/A   Clear
10:35 PM 42.8 °F - - N/A% 30.12 in 7.0 mi Calm Calm - N/A   Clear
10:55 PM 41.0 °F 39.0 °F - N/A% 30.13 in 7.0 mi NE 3.5 mph - N/A   Clear
11:15 PM 41.0 °F - - N/A% 30.13 in 5.0 mi Calm Calm - N/A   Haze
11:35 PM 41.0 °F - - N/A% 30.14 in 7.0 mi Calm Calm - N/A   Clear
11:55 PM 39.2 °F 35.9 °F - N/A% 30.14 in 4.0 mi NE 4.6 mph - N/A   Haze